115  
ASUS44 KMEG 230310  
RWRMEG  
MEMPHIS CWA HOURLY WEATHER ROUNDUP  
NATIONAL WEATHER SERVICE MEMPHIS TN  
1000 PM CDT SUN APR 22 2018  
   
..WEST TENNESSEE
 
 
 
CITY SKY/WX TMP DP RH WIND PRES REMARKS
 
MEMPHIS INTL LGT RAIN 62 61 96 NE5 29.84S  
NWS MEMPHIS N/A 60 N/A N/A MISG N/A  
JACKSON RAIN 59 59 100 E9 29.84F  
COVINGTON CLOUDY 61 59 94 E5 29.86R  
SOMERVILLE CLOUDY 61 59 94 CALM 29.83S  
BOLIVAR CLOUDY 59 57 94 N14G21 29.79F  
LEXINGTON CLOUDY 57 57 100 N6 29.84F FOG  
SELMER CLOUDY 57 57 100 N10 29.80F FOG  
DYERSBURG LGT RAIN 59 57 93 NE10 29.87F  
UNION CITY CLOUDY 59 57 94 NE8 29.89F FOG  
PARIS CLOUDY 57 57 100 NE12G20 29.89F FOG  
HUNTINGDON CLOUDY 59 57 94 NE9G17 29.87F FOG  
 
   
..EASTERN ARKANSAS
 
 
 
CITY SKY/WX TMP DP RH WIND PRES REMARKS
 
JONESBORO CLOUDY 60 60 100 NE6 29.88R  
WEST MEMPHIS MOCLDY 61 61 100 CALM 29.84S  
BATESVILLE CLOUDY 55 53 93 N3 29.90S  
NEWPORT CLOUDY 56 54 93 NW10 29.89F  
WALNUT RIDGE CLOUDY 59 58 96 E8 29.89S  
BLYTHEVILLE RAIN 60 57 89 E6 29.87S  
SEARCY FAIR 55 55 100 CALM 29.90S  
STUTTGART CLOUDY 58 54 86 W15 29.90R  
PINE BLUFF CLOUDY 58 52 80 W9 29.92R  
MONTICELLO CLOUDY 59 51 75 W8 29.92R  
 
   
..NORTH MISSISSIPPI
 
 
 
CITY SKY/WX TMP DP RH WIND PRES REMARKS
 
TUPELO CLOUDY 61 58 90 SW5 29.81R  
BATESVILLE N/A N/A N/A N/A MISG N/A  
TUNICA N/A 59 57 94 NW8 29.85F  
CLARKSDALE MOCLDY 63 63 100 W14 29.86R  
CORINTH LGT RAIN 59 59 100 NE8 29.79F  
GREENWOOD LGT RAIN 62 60 93 W3 29.86R  
COLUMBUS CLOUDY 61 61 100 W10 29.82R  
STARKVILLE MOCLDY 57 55 94 CALM 29.87R  
GOLDEN TRIANGL CLOUDY 60 59 96 W6 29.85R  
 
   
..SOUTHEAST MISSOURI
 
 
 
CITY SKY/WX TMP DP RH WIND PRES REMARKS
 
KENNETT DRIZZLE 59 59 100 NE10 29.87S  
MALDEN RAIN 59 55 88 NE7 29.92S  
WEST PLAINS LGT RAIN 53 51 93 NE9 29.94R  
POPLAR BLUFF CLOUDY 59 57 93 NE10 29.91F  
CAPE GIRARDEAU LGT RAIN 59 56 89 E13 29.94S  
 
   
..NORTHWEST ALABAMA
 
 
 
CITY SKY/WX TMP DP RH WIND PRES REMARKS
 
MUSCLE SHOALS LGT RAIN 61 57 87 SE9 29.77R  
 
   
..MIDDLE TENNESSEE
 
 
 
CITY SKY/WX TMP DP RH WIND PRES REMARKS
 
NASHVILLE RAIN 58 56 93 E21G31 29.93F FOG  
CLARKSVILLE RAIN 58 54 86 E17G24 29.94F FOG  
COLUMBIA CLOUDY 57 57 100 E20 29.81F  
LEWISBURG CLOUDY 57 55 94 E10G17 29.85F  
 
   
..WESTERN KENTUCKY
 
 
 
CITY SKY/WX TMP DP RH WIND PRES REMARKS
 
PADUCAH LGT RAIN 58 56 93 E13 29.94F  
 
   
..CENTRAL ARKANSAS
 
 
 
CITY SKY/WX TMP DP RH WIND PRES REMARKS
 
LITTLE ROCK CLOUDY 56 52 86 W10 29.92S  
 
SKY/WX REPORTED AS FAIR MEANS FEW OR NO CLOUDS BELOW  
12 THOUSAND FEET.  
 
 
 
CLICK HERE TO GO TO PREVIOUS BULLETINS.

The Nexlab TN Page
The Nexlab MS Page
The Nexlab AR Page Main Text Page